[[{"header":{"parameterUnit":"m.s-1","parameterCategory":1,"la1":30.2991,"la2":30.254,"lo1":-89.0895,"lo2":-89.0444,"dy":0.0017,"dx":0.0017,"nx":28,"ny":28,"refTime":"2023-04-23T21:00:00:Z","depth":0,"parameterNumber":2,"parameterNumberName":"U-component_of_WINDS"},"data":[0,0,0,0,0,0,0,0,0,0,0,0,0,0,0,0,0,0,0,0,0,0,0,0,0,0,0,0,0,0,0,0,0,0,0,0,0,0,0,0,0,0,0,0,0,0,0,0,0,0,0,0,0,0,0,0,0,0,-3.5915,-3.5915,0,-3.5944,-3.5944,-3.5944,-3.585,-3.5848,-3.5845,-3.5842,-3.5872,-3.5876,-3.5879,0,0,0,0,0,0,0,0,0,0,0,0,0,-3.5778,-3.5781,-3.5915,-3.5915,-3.5916,-3.5944,-3.5944,-3.5944,-3.5851,-3.5848,-3.5844,-3.5841,-3.5871,-3.5875,-3.5879,0,0,0,0,0,0,0,0,0,0,0,0,0,-3.5826,-3.5782,-3.5915,-3.5872,-3.5869,-3.5943,-3.5944,-3.5944,-3.5852,-3.5847,-3.5843,-3.5839,-3.587,-3.5875,-3.588,-3.5997,0,0,-3.5896,-3.5898,0,0,0,0,0,0,0,0,-3.5823,-3.5831,-3.5878,-3.5875,-3.5872,-3.5889,-3.5907,-3.5962,-3.5853,-3.5858,-3.5842,-3.5837,-3.5881,-3.5885,-3.59,-3.5998,-3.6,-3.5896,-3.5899,-3.5902,-3.5903,0,0,0,0,0,0,0,-3.582,-3.5829,-3.5926,-3.5879,-3.5875,-3.5852,-3.5854,-3.5917,-3.5893,-3.5857,-3.5851,-3.5855,-3.5879,-3.5895,-3.59,-3.6,-3.5896,-3.5901,-3.5904,-3.5906,-3.6195,-3.6199,0,0,0,0,0,0,-3.5822,-3.5827,-3.5925,-3.5927,-3.5836,-3.5858,-3.586,-3.5888,-3.5892,-3.5889,-3.5859,-3.5851,-3.5889,-3.5894,-3.5901,-3.6038,-3.5901,-3.5906,-3.5909,-3.6191,-3.6196,-3.6201,0,0,0,0,0,0,-3.582,-3.5832,-3.5924,-3.5875,-3.5885,-3.5864,-3.5897,-3.5891,-3.5907,-3.5894,-3.5889,-3.588,-3.5885,-3.5894,-3.5974,-3.6038,-3.5909,-3.5913,-3.6185,-3.6192,-3.6199,-3.6315,0,0,0,0,0,0,-3.5816,-3.5831,-3.5876,-3.5877,-3.5888,-3.5997,-3.5901,-3.5894,-3.5916,-3.5906,-3.5912,-3.5909,-3.5883,-3.5966,-3.5979,-3.6043,-3.5917,-3.6179,-3.6188,-3.6196,-3.6305,-3.6324,-3.6341,0,0,0,0,0,-3.5811,-3.5908,-3.5879,-3.5891,-3.5944,-3.6001,-3.6007,-3.5975,-3.5922,-3.5966,-3.5957,-3.5909,-3.6028,-3.5975,-3.5989,-3.6055,-3.6175,-3.6186,-3.6196,-3.6297,-3.6321,-3.6341,0,0,0,0,0,0,-3.5916,-3.5907,-3.5875,-3.5975,-3.5989,-3.5985,-3.6041,-3.6001,-3.6031,-3.6021,-3.5978,-3.5981,-3.6069,-3.6069,-3.601,-3.6168,-3.6093,-3.6106,-3.6165,-3.6188,-3.6205,-3.6204,-3.5922,0,0,0,0,0,-3.5951,-3.5998,-3.5988,-3.6077,-3.6086,-3.6062,-3.6086,-3.6059,-3.6073,-3.6079,-3.6075,-3.609,-3.6131,-3.6159,-3.6196,-3.6304,-3.6304,-3.6356,-3.6374,-3.6389,-3.6402,-3.6458,-3.6482,-3.6235,-3.6235,-3.6235,0,0,-3.6023,-3.6024,-3.6057,-3.6098,-3.6106,-3.6156,-3.6068,-3.6125,-3.6162,-3.6087,-3.6163,-3.6161,-3.6175,-3.6269,-3.6311,-3.6273,-3.6469,-3.6402,-3.6414,-3.6419,-3.6471,-3.6495,-3.6516,-3.6242,-3.6241,-3.624,0,0,-3.6181,-3.6186,-3.626,-3.627,-3.6283,-3.6266,-3.6284,-3.6286,-3.6282,-3.6357,-3.6302,-3.6344,-3.6415,-3.6427,-3.6443,-3.6603,-3.6559,-3.6615,-3.6711,-3.6767,-3.6787,-3.6804,-3.6861,-3.6883,-3.6628,-3.6628,-3.6628,0,-3.6269,-3.6342,-3.6304,-3.6364,-3.6384,-3.6317,-3.6392,-3.6404,-3.6428,-3.6443,-3.64,-3.6487,-3.6492,-3.6588,-3.6627,-3.6641,-3.666,-3.6616,-3.6787,-3.6804,-3.6819,-3.6874,-3.6895,-3.6635,-3.6634,-3.6633,-3.6633,0,-3.6451,-3.6502,-3.6561,-3.6586,-3.6611,-3.6679,-3.665,-3.6681,-3.6651,-3.6639,-3.6716,-3.6718,-3.6754,-3.6775,-3.6747,-3.6867,-3.6843,-3.6794,-3.6718,-3.685,-3.6901,-3.6921,-3.6645,-3.6642,-3.664,-3.6638,0,0,-3.6678,-3.6679,-3.6701,-3.6711,-3.672,-3.6759,-3.6823,-3.6857,-3.6885,-3.6903,-3.6956,-3.7016,-3.6971,-3.6988,-3.696,-3.7009,-3.7136,-3.6954,-3.6954,-3.6989,-3.7269,-3.7307,-3.7332,-3.7107,-3.711,-3.7113,-3.7268,0,-3.6833,-3.6943,-3.6909,-3.702,-3.7067,-3.7003,-3.7058,-3.707,-3.706,-3.7098,-3.7085,-3.713,-3.7066,-3.7076,-3.7121,-3.7111,-3.7192,-3.7099,-3.7156,-3.7158,-3.7156,-3.7358,-3.7399,-3.7545,-3.7288,-3.7291,-3.7294,0,-3.703,-3.7056,-3.7172,-3.7171,-3.7189,-3.724,-3.7269,-3.7306,-3.7316,-3.7305,-3.7324,-3.7286,-3.7348,-3.727,-3.7355,-3.7292,-3.7313,-3.7311,-3.7316,-3.7321,-3.7235,-3.7371,-3.7591,-3.7614,-3.7324,-3.7322,-3.7319,0,-3.7186,-3.7249,-3.7326,-3.7336,-3.7338,-3.7375,-3.7377,-3.7383,-3.7406,-3.743,-3.7444,-3.7476,-3.7494,-3.7519,-3.749,-3.7435,-3.7579,-3.7499,-3.7572,-3.7573,-3.7607,-3.7606,-3.7836,-3.7618,-3.7618,-3.7617,-3.7617,0,-3.7364,-3.7437,-3.7395,-3.7443,-3.7523,-3.7482,-3.7563,-3.7557,-3.7563,-3.7609,-3.7555,-3.7598,-3.7556,-3.7596,-3.7573,-3.7647,-3.7655,-3.7648,-3.7642,-3.7654,-3.7655,-3.7669,-3.7658,-3.7623,-3.7622,-3.7621,-3.762,0,-3.7552,-3.7527,-3.7607,-3.7601,-3.7601,-3.766,-3.7655,-3.7698,-3.7683,-3.7741,-3.7752,-3.7729,-3.7772,-3.7745,-3.7789,-3.7774,-3.7871,-3.7849,-3.7867,-3.7862,-3.7938,-3.7932,-3.8185,-3.8217,-3.7978,-3.798,-3.7982,0,-3.7669,-3.7723,-3.7723,-3.7749,-3.7755,-3.7798,-3.782,-3.7781,-3.7807,-3.7822,-3.7864,-3.7903,-3.7932,-3.8005,-3.7992,-3.8025,-3.8005,-3.8091,-3.801,-3.802,-3.8007,-3.8005,-3.801,-3.8109,-3.8111,-3.8114,-3.8116,0,-3.7878,-3.7863,-3.7897,-3.7927,-3.7955,-3.7977,-3.7994,-3.8019,-3.798,-3.8011,-3.8055,-3.8077,-3.8122,-3.8161,-3.8189,-3.819,-3.8147,-3.8141,-3.816,-3.8174,-3.8183,-3.818,-3.7914,-3.8136,-3.8134,-3.8132,-3.8131,-3.813,-3.8035,-3.808,-3.8087,-3.8126,-3.8135,-3.8152,-3.8193,-3.8182,-3.8217,-3.8251,-3.8225,-3.8277,-3.8285,-3.8317,-3.8325,-3.8364,-3.8329,-3.8357,-3.8364,-3.8372,-3.8383,-3.8175,-3.8369,-3.8369,-3.8368,-3.8367,-3.8367,0,-3.8242,-3.8243,-3.828,-3.8305,-3.8336,-3.8291,-3.8307,-3.8337,-3.8383,-3.8394,-3.8423,-3.8473,-3.851,-3.8499,-3.8533,-3.8567,-3.8548,-3.8577,-3.8575,-3.8576,-3.8412,-3.8392,-3.8592,-3.8592,-3.8592,-3.8592,-3.8591,-3.8591,-3.8354,-3.8429,-3.8414,-3.8492,-3.8491,-3.8542,-3.8555,-3.857,-3.8578,-3.8636,-3.8667,-3.8659,-3.8661,-3.8693,-3.8726,-3.8721,-3.8737,-3.8773,-3.8762,-3.861,-3.8587,-3.8566,-3.8548,-3.8777,-3.8777,-3.8923,-3.8924,-3.8925]},{"header":{"parameterUnit":"m.s-1","parameterCategory":1,"la1":30.2991,"la2":30.254,"lo1":-89.0895,"lo2":-89.0444,"dy":0.0017,"dx":0.0017,"nx":28,"ny":28,"refTime":"2023-04-23T21:00:00:Z","depth":0,"parameterNumber":3,"parameterNumberName":"V-component_of_WINDS"},"data":[0,0,0,0,0,0,0,0,0,0,0,0,0,0,0,0,0,0,0,0,0,0,0,0,0,0,0,0,0,0,0,0,0,0,0,0,0,0,0,0,0,0,0,0,0,0,0,0,0,0,0,0,0,0,0,0,0,0,-6.3349,-6.335,0,-6.337,-6.337,-6.337,-6.3268,-6.3265,-6.3262,-6.3259,-6.3277,-6.3281,-6.3284,0,0,0,0,0,0,0,0,0,0,0,0,0,-6.3219,-6.3222,-6.3349,-6.335,-6.335,-6.337,-6.337,-6.337,-6.3268,-6.3265,-6.3261,-6.3258,-6.3276,-6.328,-6.3284,0,0,0,0,0,0,0,0,0,0,0,0,0,-6.3261,-6.3223,-6.3349,-6.3301,-6.3297,-6.337,-6.337,-6.337,-6.3269,-6.3264,-6.326,-6.3256,-6.3275,-6.328,-6.3285,-6.3403,0,0,-6.3299,-6.3301,0,0,0,0,0,0,0,0,-6.3259,-6.3266,-6.3308,-6.3305,-6.33,-6.3312,-6.3331,-6.3381,-6.327,-6.328,-6.3259,-6.3254,-6.3292,-6.3295,-6.3309,-6.3404,-6.3405,-6.33,-6.3303,-6.3305,-6.3306,0,0,0,0,0,0,0,-6.3256,-6.3264,-6.3357,-6.3309,-6.3304,-6.3278,-6.3279,-6.334,-6.331,-6.3278,-6.3271,-6.3275,-6.3289,-6.3304,-6.3308,-6.3405,-6.33,-6.3304,-6.3307,-6.3309,-6.3598,-6.3602,0,0,0,0,0,0,-6.326,-6.3263,-6.3357,-6.3358,-6.3268,-6.3284,-6.3285,-6.3312,-6.3309,-6.3305,-6.3279,-6.327,-6.3298,-6.3303,-6.3309,-6.3447,-6.3305,-6.3309,-6.3312,-6.3593,-6.3599,-6.3604,0,0,0,0,0,0,-6.3257,-6.3269,-6.3356,-6.3308,-6.3317,-6.3291,-6.3322,-6.3315,-6.333,-6.331,-6.3304,-6.33,-6.3295,-6.3302,-6.338,-6.3446,-6.3312,-6.3316,-6.3587,-6.3595,-6.3601,-6.3725,0,0,0,0,0,0,-6.3254,-6.3269,-6.3315,-6.331,-6.332,-6.3429,-6.3326,-6.3319,-6.3339,-6.3328,-6.3328,-6.3324,-6.3292,-6.3374,-6.3385,-6.345,-6.332,-6.3581,-6.3591,-6.3599,-6.3715,-6.3735,-6.3753,0,0,0,0,0,-6.325,-6.3348,-6.3317,-6.3329,-6.3377,-6.3432,-6.3438,-6.34,-6.3345,-6.339,-6.3377,-6.3324,-6.3437,-6.3383,-6.3395,-6.3462,-6.3577,-6.3588,-6.3598,-6.3706,-6.3731,-6.3752,0,0,0,0,0,0,-6.336,-6.3347,-6.3312,-6.3413,-6.3425,-6.3415,-6.3471,-6.3428,-6.3456,-6.3444,-6.3395,-6.3396,-6.3483,-6.348,-6.342,-6.3577,-6.3497,-6.3511,-6.3575,-6.3599,-6.3618,-6.3616,-6.3324,0,0,0,0,0,-6.3396,-6.3444,-6.3429,-6.3518,-6.3526,-6.3498,-6.3521,-6.3491,-6.3501,-6.3505,-6.3497,-6.3508,-6.3546,-6.3572,-6.3606,-6.3714,-6.3712,-6.3766,-6.3785,-6.3801,-6.3813,-6.387,-6.3893,-6.3639,-6.3639,-6.3639,0,0,-6.3471,-6.347,-6.3502,-6.3541,-6.3546,-6.3595,-6.3503,-6.3559,-6.3594,-6.3513,-6.3587,-6.3582,-6.3591,-6.3685,-6.3725,-6.3685,-6.3883,-6.3815,-6.3827,-6.3831,-6.3883,-6.3907,-6.3929,-6.3646,-6.3645,-6.3644,0,0,-6.3632,-6.3637,-6.3711,-6.3719,-6.3729,-6.371,-6.3728,-6.3725,-6.3719,-6.3792,-6.3732,-6.3773,-6.384,-6.3849,-6.3862,-6.4027,-6.3979,-6.4039,-6.4138,-6.4194,-6.4214,-6.4231,-6.429,-6.4311,-6.4051,-6.4051,-6.4052,0,-6.3724,-6.3796,-6.3755,-6.3815,-6.3833,-6.3763,-6.3838,-6.3847,-6.3867,-6.3881,-6.3836,-6.3918,-6.3919,-6.4014,-6.4054,-6.4067,-6.4085,-6.4039,-6.4214,-6.4232,-6.4247,-6.4302,-6.4324,-6.4059,-6.4058,-6.4057,-6.4056,0,-6.3908,-6.3959,-6.4018,-6.4041,-6.4065,-6.4133,-6.4101,-6.413,-6.4098,-6.4083,-6.4158,-6.4157,-6.419,-6.421,-6.4178,-6.43,-6.4274,-6.4223,-6.4142,-6.428,-6.433,-6.4351,-6.4069,-6.4066,-6.4064,-6.4062,0,0,-6.414,-6.4138,-6.4161,-6.417,-6.4176,-6.4214,-6.4277,-6.431,-6.4336,-6.4352,-6.4404,-6.4462,-6.4414,-6.4429,-6.4398,-6.4447,-6.4577,-6.4389,-6.4388,-6.4424,-6.471,-6.4749,-6.4774,-6.4545,-6.4549,-6.4552,-6.4709,0,-6.4297,-6.4407,-6.4371,-6.4482,-6.4528,-6.4462,-6.4517,-6.4526,-6.4513,-6.455,-6.4535,-6.4577,-6.4511,-6.452,-6.4565,-6.4552,-6.4634,-6.454,-6.4592,-6.4594,-6.4592,-6.4801,-6.4842,-6.499,-6.4729,-6.4732,-6.4734,0,-6.4496,-6.4521,-6.4637,-6.4634,-6.4652,-6.4703,-6.4729,-6.4765,-6.4774,-6.4761,-6.4779,-6.4737,-6.4798,-6.4718,-6.4801,-6.4738,-6.4757,-6.4754,-6.4759,-6.4762,-6.4673,-6.4809,-6.5036,-6.5059,-6.4765,-6.4763,-6.4761,0,-6.4653,-6.4715,-6.4793,-6.4802,-6.4802,-6.4839,-6.484,-6.4844,-6.4866,-6.4889,-6.4902,-6.4932,-6.4948,-6.4971,-6.4938,-6.4883,-6.5026,-6.4943,-6.5017,-6.5018,-6.505,-6.5048,-6.5284,-6.5063,-6.5063,-6.5062,-6.5062,0,-6.4833,-6.4906,-6.4863,-6.4911,-6.499,-6.4948,-6.5028,-6.5021,-6.5026,-6.507,-6.5014,-6.5057,-6.5011,-6.5049,-6.5024,-6.5096,-6.5104,-6.5095,-6.5088,-6.51,-6.5101,-6.5112,-6.5101,-6.5068,-6.5067,-6.5066,-6.5065,0,-6.5021,-6.4996,-6.5075,-6.5068,-6.5068,-6.5127,-6.5121,-6.5164,-6.5147,-6.5204,-6.5215,-6.5189,-6.5231,-6.5201,-6.5242,-6.5225,-6.5321,-6.5298,-6.5318,-6.5312,-6.5387,-6.5381,-6.5637,-6.5668,-6.5429,-6.5431,-6.5433,0,-6.5138,-6.5193,-6.5192,-6.5218,-6.5223,-6.5266,-6.5287,-6.5248,-6.5273,-6.5287,-6.5328,-6.5365,-6.5393,-6.5463,-6.5447,-6.5478,-6.5456,-6.5544,-6.5461,-6.5472,-6.5457,-6.5455,-6.546,-6.5561,-6.5564,-6.5566,-6.5568,0,-6.5347,-6.5331,-6.5366,-6.5396,-6.5424,-6.5445,-6.5462,-6.5486,-6.5446,-6.5476,-6.5519,-6.5541,-6.5583,-6.5621,-6.5646,-6.5646,-6.5601,-6.5595,-6.5613,-6.5627,-6.5636,-6.5632,-6.5364,-6.5589,-6.5587,-6.5585,-6.5584,-6.5583,-6.5502,-6.5548,-6.5555,-6.5594,-6.5603,-6.562,-6.566,-6.5649,-6.5684,-6.5716,-6.569,-6.5741,-6.5747,-6.5777,-6.5783,-6.5822,-6.5785,-6.5813,-6.5819,-6.5827,-6.5837,-6.563,-6.5826,-6.5825,-6.5825,-6.5824,-6.5824,0,-6.5708,-6.5709,-6.5746,-6.5772,-6.5803,-6.5758,-6.5774,-6.5803,-6.5849,-6.5859,-6.5888,-6.5936,-6.5973,-6.596,-6.5992,-6.6025,-6.6005,-6.6035,-6.6032,-6.6032,-6.5868,-6.5848,-6.605,-6.605,-6.605,-6.605,-6.605,-6.605,-6.5819,-6.5894,-6.5879,-6.5957,-6.5957,-6.6007,-6.602,-6.6035,-6.6043,-6.61,-6.613,-6.6122,-6.6123,-6.6154,-6.6185,-6.618,-6.6194,-6.6232,-6.622,-6.6066,-6.6044,-6.6023,-6.6004,-6.6235,-6.6236,-6.6381,-6.6382,-6.6383]}]]